Time,TemperatureF,DewpointF,PressureIn,WindDirection,WindDirectionDegrees,WindSpeedMPH,WindSpeedGustMPH,Humidity,HourlyPrecipIn,Conditions,Clouds,dailyrainin,SoftwareType,DateUTC
2013-02-22 00:00:00,27.3,18.5,30.27,NW,321,12.0,22.0,69,0.00,,,0.00,meteohub,2013-02-22 05:00:00,
2013-02-22 00:01:00,27.5,18.7,30.27,NW,313,12.0,22.0,69,0.00,,,0.00,meteohub,2013-02-22 05:01:00,
2013-02-22 00:06:00,27.5,18.7,30.27,NW,325,12.0,22.0,69,0.00,,,0.00,meteohub,2013-02-22 05:06:00,
2013-02-22 00:11:00,27.7,19.2,30.27,NW,319,13.0,22.0,70,0.00,,,0.00,meteohub,2013-02-22 05:11:00,
2013-02-22 00:16:00,27.7,19.2,30.28,WNW,298,22.0,23.0,70,0.00,,,0.00,meteohub,2013-02-22 05:16:00,
2013-02-22 00:21:00,27.9,19.4,30.28,WNW,300,14.0,23.0,70,0.00,,,0.00,meteohub,2013-02-22 05:21:00,
2013-02-22 00:26:00,27.9,19.4,30.29,NW,309,8.0,23.0,70,0.00,,,0.00,meteohub,2013-02-22 05:26:00,
2013-02-22 00:31:00,27.9,19.4,30.28,NW,311,18.0,23.0,70,0.00,,,0.00,meteohub,2013-02-22 05:31:00,
2013-02-22 00:36:00,27.9,19.4,30.29,NW,315,13.0,23.0,70,0.00,,,0.00,meteohub,2013-02-22 05:36:00,
2013-02-22 00:41:00,27.9,19.4,30.28,NNW,332,10.0,23.0,70,0.00,,,0.00,meteohub,2013-02-22 05:41:00,
2013-02-22 00:46:00,27.9,19.4,30.28,NNW,339,13.0,25.0,70,0.00,,,0.00,meteohub,2013-02-22 05:46:00,
2013-02-22 00:51:00,27.9,19.4,30.28,NNW,330,15.0,25.0,70,0.00,,,0.00,meteohub,2013-02-22 05:51:00,
2013-02-22 00:56:00,27.9,19.4,30.28,NW,316,8.0,25.0,70,0.00,,,0.00,meteohub,2013-02-22 05:56:00,
2013-02-22 01:01:00,27.9,19.4,30.27,NW,307,11.0,25.0,70,0.00,,,0.00,meteohub,2013-02-22 06:01:00,
2013-02-22 01:06:00,27.9,19.4,30.28,NW,319,13.0,25.0,70,0.00,,,0.00,meteohub,2013-02-22 06:06:00,
2013-02-22 01:11:00,27.9,19.4,30.27,NNW,348,9.0,19.0,70,0.00,,,0.00,meteohub,2013-02-22 06:11:00,
2013-02-22 01:16:00,27.9,19.8,30.27,NNW,339,8.0,19.0,71,0.00,,,0.00,meteohub,2013-02-22 06:16:00,
2013-02-22 01:21:00,27.9,19.8,30.27,NNW,333,12.0,19.0,71,0.00,,,0.00,meteohub,2013-02-22 06:21:00,
2013-02-22 01:26:00,27.9,19.8,30.27,NNW,340,15.0,19.0,71,0.00,,,0.00,meteohub,2013-02-22 06:26:00,
2013-02-22 01:31:00,28.0,19.9,30.27,NNW,348,12.0,19.0,71,0.00,,,0.00,meteohub,2013-02-22 06:31:00,
2013-02-22 01:36:00,28.2,20.1,30.26,NNW,348,21.0,21.0,71,0.00,,,0.00,meteohub,2013-02-22 06:36:00,
2013-02-22 01:41:00,28.2,19.8,30.26,NNW,346,16.0,20.0,70,0.00,,,0.00,meteohub,2013-02-22 06:41:00,
2013-02-22 01:46:00,28.0,19.9,30.25,NW,311,13.0,20.0,71,0.00,,,0.00,meteohub,2013-02-22 06:46:00,
2013-02-22 01:51:00,28.0,19.9,30.25,NNW,344,16.0,20.0,71,0.00,,,0.00,meteohub,2013-02-22 06:51:00,
2013-02-22 01:56:00,28.0,19.9,30.25,NNW,332,9.0,22.0,71,0.00,,,0.00,meteohub,2013-02-22 06:56:00,
2013-02-22 02:01:00,28.0,19.9,30.25,NNW,329,12.0,22.0,71,0.00,,,0.00,meteohub,2013-02-22 07:01:00,
2013-02-22 02:06:00,28.0,20.1,30.25,NW,309,8.0,22.0,72,0.00,,,0.00,meteohub,2013-02-22 07:06:00,
2013-02-22 02:11:00,28.0,20.1,30.26,NNW,344,11.0,22.0,72,0.00,,,0.00,meteohub,2013-02-22 07:11:00,
2013-02-22 02:16:00,28.0,20.1,30.26,WNW,296,15.0,21.0,72,0.00,,,0.00,meteohub,2013-02-22 07:16:00,
2013-02-22 02:21:00,28.0,19.9,30.26,North,9,10.0,21.0,71,0.00,,,0.00,meteohub,2013-02-22 07:21:00,
2013-02-22 02:26:00,28.0,19.9,30.27,NW,315,14.0,21.0,71,0.00,,,0.00,meteohub,2013-02-22 07:26:00,
2013-02-22 02:31:00,27.9,19.4,30.27,NW,318,14.0,24.0,70,0.00,,,0.00,meteohub,2013-02-22 07:31:00,
2013-02-22 02:36:00,27.9,19.4,30.27,WNW,298,8.0,24.0,70,0.00,,,0.00,meteohub,2013-02-22 07:36:00,
2013-02-22 02:42:00,27.9,19.4,30.28,NNW,338,16.0,24.0,70,0.00,,,0.00,meteohub,2013-02-22 07:42:00,
2013-02-22 02:47:00,27.9,19.4,30.29,NNW,329,20.0,24.0,70,0.00,,,0.00,meteohub,2013-02-22 07:47:00,
2013-02-22 02:52:00,27.9,19.8,30.28,NNW,346,14.0,22.0,71,0.00,,,0.00,meteohub,2013-02-22 07:52:00,
2013-02-22 02:57:00,27.9,19.8,30.27,NNW,334,9.0,22.0,71,0.00,,,0.00,meteohub,2013-02-22 07:57:00,
2013-02-22 03:02:00,27.9,19.8,30.27,NW,324,12.0,22.0,71,0.00,,,0.00,meteohub,2013-02-22 08:02:00,
2013-02-22 03:07:00,27.9,19.9,30.28,NNW,330,15.0,22.0,72,0.00,,,0.00,meteohub,2013-02-22 08:07:00,
2013-02-22 03:12:00,27.9,19.9,30.28,NNW,339,11.0,22.0,72,0.00,,,0.00,meteohub,2013-02-22 08:12:00,
2013-02-22 03:17:00,27.9,19.9,30.28,NNW,327,6.0,19.0,72,0.00,,,0.00,meteohub,2013-02-22 08:17:00,
2013-02-22 03:22:00,27.9,19.9,30.28,NNW,342,7.0,19.0,72,0.00,,,0.00,meteohub,2013-02-22 08:22:00,
2013-02-22 03:27:00,27.9,19.9,30.28,NW,312,7.0,19.0,72,0.00,,,0.00,meteohub,2013-02-22 08:27:00,
2013-02-22 03:32:00,27.9,19.9,30.29,North,355,8.0,17.0,72,0.00,,,0.00,meteohub,2013-02-22 08:32:00,
2013-02-22 03:37:00,27.9,19.9,30.29,NNW,333,6.0,17.0,72,0.00,,,0.00,meteohub,2013-02-22 08:37:00,
2013-02-22 03:42:00,27.9,19.9,30.30,NNW,329,9.0,17.0,72,0.00,,,0.00,meteohub,2013-02-22 08:42:00,
2013-02-22 03:47:00,27.9,20.3,30.31,NNW,339,11.0,17.0,73,0.00,,,0.00,meteohub,2013-02-22 08:47:00,
2013-02-22 03:52:00,28.0,20.5,30.31,North,355,12.0,14.0,73,0.00,,,0.00,meteohub,2013-02-22 08:52:00,
2013-02-22 03:57:00,28.0,20.1,30.32,North,355,5.0,14.0,72,0.00,,,0.00,meteohub,2013-02-22 08:57:00,
2013-02-22 04:02:00,28.0,20.1,30.33,NNW,341,6.0,14.0,72,0.00,,,0.00,meteohub,2013-02-22 09:02:00,
2013-02-22 04:07:00,27.9,19.9,30.34,NW,322,5.0,14.0,72,0.00,,,0.00,meteohub,2013-02-22 09:07:00,
2013-02-22 04:12:00,27.9,19.9,30.34,NW,323,8.0,14.0,72,0.00,,,0.00,meteohub,2013-02-22 09:12:00,
2013-02-22 04:17:00,28.0,20.1,30.34,NW,314,6.0,14.0,72,0.00,,,0.00,meteohub,2013-02-22 09:17:00,
2013-02-22 04:22:00,27.9,19.9,30.34,NNW,329,8.0,14.0,72,0.00,,,0.00,meteohub,2013-02-22 09:22:00,
2013-02-22 04:27:00,27.9,20.3,30.34,NW,325,6.0,14.0,73,0.00,,,0.00,meteohub,2013-02-22 09:27:00,
2013-02-22 04:32:00,27.9,20.3,30.34,NNW,332,7.0,15.0,73,0.00,,,0.00,meteohub,2013-02-22 09:32:00,
2013-02-22 04:37:00,27.9,20.3,30.33,NW,313,10.0,15.0,73,0.00,,,0.00,meteohub,2013-02-22 09:37:00,
2013-02-22 04:42:00,27.9,20.3,30.34,NW,313,11.0,15.0,73,0.00,,,0.00,meteohub,2013-02-22 09:42:00,
2013-02-22 04:47:00,27.9,20.3,30.33,NW,317,13.0,15.0,73,0.00,,,0.00,meteohub,2013-02-22 09:47:00,
2013-02-22 04:52:00,27.9,20.3,30.33,NW,323,12.0,15.0,73,0.00,,,0.00,meteohub,2013-02-22 09:52:00,
2013-02-22 04:57:00,28.0,20.5,30.34,NNW,328,9.0,18.0,73,0.00,,,0.00,meteohub,2013-02-22 09:57:00,
2013-02-22 05:02:00,27.9,20.3,30.34,NNW,329,9.0,18.0,73,0.00,,,0.00,meteohub,2013-02-22 10:02:00,
2013-02-22 05:07:00,27.9,20.3,30.35,NW,324,11.0,18.0,73,0.00,,,0.00,meteohub,2013-02-22 10:07:00,
2013-02-22 05:12:00,27.9,20.3,30.35,NW,316,5.0,18.0,73,0.00,,,0.00,meteohub,2013-02-22 10:12:00,
2013-02-22 05:17:00,27.9,20.3,30.35,NNW,327,7.0,18.0,73,0.00,,,0.00,meteohub,2013-02-22 10:17:00,
2013-02-22 05:22:00,27.7,20.5,30.35,NW,321,4.0,18.0,74,0.00,,,0.00,meteohub,2013-02-22 10:22:00,
2013-02-22 05:27:00,27.7,20.5,30.35,NW,321,5.0,15.0,74,0.00,,,0.00,meteohub,2013-02-22 10:27:00,
2013-02-22 05:32:00,27.7,20.5,30.35,NW,322,3.0,15.0,74,0.00,,,0.00,meteohub,2013-02-22 10:32:00,
2013-02-22 05:37:00,27.5,20.7,30.35,NW,324,7.0,15.0,75,0.00,,,0.00,meteohub,2013-02-22 10:37:00,
2013-02-22 05:42:00,27.5,20.7,30.35,NW,326,6.0,15.0,75,0.00,,,0.00,meteohub,2013-02-22 10:42:00,
2013-02-22 05:47:00,27.3,20.5,30.35,North,350,6.0,15.0,75,0.00,,,0.00,meteohub,2013-02-22 10:47:00,
2013-02-22 05:52:00,27.5,20.7,30.35,NNW,346,6.0,15.0,75,0.00,,,0.00,meteohub,2013-02-22 10:52:00,
2013-02-22 05:57:00,27.5,21.0,30.35,NNW,346,9.0,13.0,76,0.00,,,0.00,meteohub,2013-02-22 10:57:00,
2013-02-22 06:02:00,27.7,21.0,30.35,NNW,344,9.0,13.0,76,0.00,,,0.00,meteohub,2013-02-22 11:02:00,
2013-02-22 06:07:00,27.7,21.0,30.35,NNW,345,9.0,13.0,76,0.00,,,0.00,meteohub,2013-02-22 11:07:00,
2013-02-22 06:12:00,27.7,21.0,30.35,NNW,348,12.0,13.0,76,0.00,,,0.00,meteohub,2013-02-22 11:12:00,
2013-02-22 06:17:00,27.7,21.0,30.35,NNW,342,7.0,13.0,76,0.00,,,0.00,meteohub,2013-02-22 11:17:00,
2013-02-22 06:22:00,27.7,21.0,30.36,NNW,339,12.0,13.0,76,0.00,,,0.00,meteohub,2013-02-22 11:22:00,
2013-02-22 06:27:00,27.7,21.0,30.36,NNW,341,8.0,13.0,76,0.00,,,0.00,meteohub,2013-02-22 11:27:00,
2013-02-22 06:32:00,27.7,21.0,30.37,NNW,336,7.0,14.0,76,0.00,,,0.00,meteohub,2013-02-22 11:32:00,
2013-02-22 06:37:00,27.7,21.0,30.37,NNW,338,7.0,14.0,76,0.00,,,0.00,meteohub,2013-02-22 11:37:00,
2013-02-22 06:42:00,27.7,21.0,30.38,NNW,340,4.0,14.0,76,0.00,,,0.00,meteohub,2013-02-22 11:42:00,
2013-02-22 06:47:00,27.9,21.2,30.38,NNW,340,4.0,14.0,76,0.00,,,0.00,meteohub,2013-02-22 11:47:00,
2013-02-22 06:52:00,28.0,21.4,30.38,NNW,340,3.0,14.0,76,0.00,,,0.00,meteohub,2013-02-22 11:52:00,
2013-02-22 06:57:00,28.0,21.4,30.39,NNW,340,1.0,14.0,76,0.00,,,0.00,meteohub,2013-02-22 11:57:00,
2013-02-22 07:03:00,28.0,21.4,30.39,NNW,340,3.0,14.0,76,0.00,,,0.00,meteohub,2013-02-22 12:03:00,
2013-02-22 07:08:00,28.2,21.6,30.39,NNW,340,4.0,8.0,76,0.00,,,0.00,meteohub,2013-02-22 12:08:00,
2013-02-22 07:13:00,28.4,21.7,30.39,NNW,338,5.0,8.0,76,0.00,,,0.00,meteohub,2013-02-22 12:13:00,
2013-02-22 07:18:00,28.6,21.9,30.40,NNW,338,6.0,8.0,76,0.00,,,0.00,meteohub,2013-02-22 12:18:00,
2013-02-22 07:23:00,28.6,21.9,30.40,NNW,337,4.0,8.0,76,0.00,,,0.00,meteohub,2013-02-22 12:23:00,
2013-02-22 07:28:00,28.6,21.9,30.40,NNW,337,4.0,8.0,76,0.00,,,0.00,meteohub,2013-02-22 12:28:00,
2013-02-22 07:33:00,28.8,22.1,30.41,NNW,337,3.0,8.0,76,0.00,,,0.00,meteohub,2013-02-22 12:33:00,
2013-02-22 07:38:00,28.8,22.1,30.41,NNW,336,6.0,8.0,76,0.00,,,0.00,meteohub,2013-02-22 12:38:00,
2013-02-22 07:43:00,28.9,22.3,30.41,NNW,336,4.0,9.0,76,0.00,,,0.00,meteohub,2013-02-22 12:43:00,
2013-02-22 07:48:00,29.1,22.3,30.41,NNW,332,7.0,9.0,75,0.00,,,0.00,meteohub,2013-02-22 12:48:00,
2013-02-22 07:53:00,29.5,22.5,30.41,NNW,332,7.0,9.0,75,0.00,,,0.00,meteohub,2013-02-22 12:53:00,
2013-02-22 07:58:00,29.7,22.6,30.41,NNW,332,7.0,9.0,75,0.00,,,0.00,meteohub,2013-02-22 12:58:00,
2013-02-22 08:03:00,30.0,23.0,30.41,NNW,332,9.0,9.0,75,0.00,,,0.00,meteohub,2013-02-22 13:03:00,
2013-02-22 08:08:00,30.2,23.0,30.41,NNW,332,5.0,9.0,74,0.00,,,0.00,meteohub,2013-02-22 13:08:00,
2013-02-22 08:13:00,30.6,23.2,30.41,NNW,332,6.0,10.0,74,0.00,,,0.00,meteohub,2013-02-22 13:13:00,
2013-02-22 08:18:00,30.7,23.2,30.41,NW,324,9.0,10.0,73,0.00,,,0.00,meteohub,2013-02-22 13:18:00,
2013-02-22 08:23:00,30.9,23.4,30.41,NW,325,8.0,10.0,73,0.00,,,0.00,meteohub,2013-02-22 13:23:00,
2013-02-22 08:28:00,31.3,23.7,30.41,NW,322,6.0,10.0,73,0.00,,,0.00,meteohub,2013-02-22 13:28:00,
2013-02-22 08:33:00,31.5,23.5,30.41,NW,324,5.0,10.0,72,0.00,,,0.00,meteohub,2013-02-22 13:33:00,
2013-02-22 08:38:00,31.6,23.7,30.41,NNW,343,6.0,14.0,72,0.00,,,0.00,meteohub,2013-02-22 13:38:00,
2013-02-22 08:43:00,32.2,23.9,30.40,North,5,11.0,14.0,71,0.00,,,0.00,meteohub,2013-02-22 13:43:00,
2013-02-22 08:48:00,32.4,23.7,30.41,NNW,339,9.0,14.0,70,0.00,,,0.00,meteohub,2013-02-22 13:48:00,
2013-02-22 08:53:00,32.7,23.7,30.40,North,355,8.0,14.0,69,0.00,,,0.00,meteohub,2013-02-22 13:53:00,
2013-02-22 08:58:00,32.9,23.5,30.40,North,10,9.0,14.0,68,0.00,,,0.00,meteohub,2013-02-22 13:58:00,
2013-02-22 09:03:00,33.1,23.7,30.40,North,0,12.0,18.0,68,0.00,,,0.00,meteohub,2013-02-22 14:03:00,
2013-02-22 09:08:00,33.3,23.9,30.41,North,355,14.0,18.0,68,0.00,,,0.00,meteohub,2013-02-22 14:08:00,
2013-02-22 09:13:00,33.4,24.1,30.41,NNW,345,9.0,18.0,68,0.00,,,0.00,meteohub,2013-02-22 14:13:00,
2013-02-22 09:18:00,33.8,24.1,30.40,NNW,327,7.0,18.0,67,0.00,,,0.00,meteohub,2013-02-22 14:18:00,
2013-02-22 09:23:00,33.8,24.1,30.41,North,0,16.0,18.0,67,0.00,,,0.00,meteohub,2013-02-22 14:23:00,
2013-02-22 09:28:00,34.0,24.3,30.40,NNW,346,14.0,18.0,67,0.00,,,0.00,meteohub,2013-02-22 14:28:00,
2013-02-22 09:33:00,34.0,24.3,30.40,North,355,13.0,18.0,67,0.00,,,0.00,meteohub,2013-02-22 14:33:00,
2013-02-22 09:38:00,34.0,23.9,30.40,North,355,13.0,18.0,66,0.00,,,0.00,meteohub,2013-02-22 14:38:00,
2013-02-22 09:43:00,34.0,24.3,30.40,North,0,17.0,18.0,67,0.00,,,0.00,meteohub,2013-02-22 14:43:00,
2013-02-22 09:48:00,34.2,23.5,30.40,NNE,16,18.0,18.0,65,0.00,,,0.00,meteohub,2013-02-22 14:48:00,
2013-02-22 09:53:00,34.5,23.9,30.39,North,5,15.0,18.0,65,0.00,,,0.00,meteohub,2013-02-22 14:53:00,
2013-02-22 09:59:00,35.1,24.4,30.39,NNE,13,14.0,18.0,65,0.00,,,0.00,meteohub,2013-02-22 14:59:00,
2013-02-22 10:04:00,35.1,24.8,30.40,North,355,18.0,21.0,66,0.00,,,0.00,meteohub,2013-02-22 15:04:00,
2013-02-22 10:09:00,34.9,23.9,30.39,NNE,26,11.0,21.0,64,0.00,,,0.00,meteohub,2013-02-22 15:09:00,
2013-02-22 10:14:00,35.1,24.1,30.39,North,0,15.0,21.0,64,0.00,,,0.00,meteohub,2013-02-22 15:14:00,
2013-02-22 10:19:00,35.2,24.6,30.40,North,5,16.0,21.0,65,0.00,,,0.00,meteohub,2013-02-22 15:19:00,
2013-02-22 10:24:00,35.4,24.4,30.39,North,9,17.0,21.0,64,0.00,,,0.00,meteohub,2013-02-22 15:24:00,
2013-02-22 10:29:00,35.6,24.6,30.39,North,355,13.0,21.0,64,0.00,,,0.00,meteohub,2013-02-22 15:29:00,
2013-02-22 10:34:00,35.8,24.8,30.38,North,5,13.0,21.0,64,-99.99,,,0.00,meteohub,2013-02-22 15:34:00,
2013-02-22 10:39:00,36.1,24.8,30.39,North,9,14.0,19.0,63,0.00,,,0.00,meteohub,2013-02-22 15:39:00,
2013-02-22 10:44:00,36.5,25.2,30.39,NNE,17,10.0,19.0,63,0.00,,,0.00,meteohub,2013-02-22 15:44:00,
2013-02-22 10:49:00,37.0,25.7,30.39,NNE,31,3.0,19.0,63,0.00,,,0.00,meteohub,2013-02-22 15:49:00,
2013-02-22 10:54:00,37.4,25.2,30.39,NE,38,13.0,19.0,61,0.00,,,0.00,meteohub,2013-02-22 15:54:00,
2013-02-22 10:59:00,37.6,25.3,30.40,North,5,9.0,19.0,61,0.00,,,0.00,meteohub,2013-02-22 15:59:00,
2013-02-22 11:04:00,37.8,25.2,30.40,North,0,8.0,18.0,60,0.00,,,0.00,meteohub,2013-02-22 16:04:00,
2013-02-22 11:09:00,37.6,25.3,30.39,NNE,31,11.0,18.0,61,0.00,,,0.00,meteohub,2013-02-22 16:09:00,
2013-02-22 11:14:00,37.6,25.0,30.39,NNE,31,5.0,18.0,60,0.00,,,0.00,meteohub,2013-02-22 16:14:00,
2013-02-22 11:19:00,37.6,25.3,30.40,North,10,8.0,18.0,61,0.00,,,0.00,meteohub,2013-02-22 16:19:00,
2013-02-22 11:24:00,37.9,26.4,30.40,NNE,24,8.0,18.0,63,0.00,,,0.00,meteohub,2013-02-22 16:24:00,
2013-02-22 11:29:00,38.3,26.4,30.39,NNE,23,6.0,18.0,62,0.00,,,0.00,meteohub,2013-02-22 16:29:00,
2013-02-22 11:34:00,38.7,26.8,30.39,NNE,32,5.0,18.0,62,0.00,,,0.00,meteohub,2013-02-22 16:34:00,
2013-02-22 11:39:00,39.0,26.8,30.39,NNE,30,3.0,11.0,61,0.00,,,0.00,meteohub,2013-02-22 16:39:00,
2013-02-22 11:44:00,39.4,26.2,30.39,NNE,31,5.0,11.0,59,0.00,,,0.00,meteohub,2013-02-22 16:44:00,
2013-02-22 11:49:00,39.2,26.1,30.39,NNE,24,5.0,11.0,59,0.00,,,0.00,meteohub,2013-02-22 16:49:00,
2013-02-22 11:54:00,39.6,27.1,30.39,NNE,24,5.0,11.0,61,0.00,,,0.00,meteohub,2013-02-22 16:54:00,
2013-02-22 11:59:00,39.9,26.8,30.39,NNE,28,3.0,11.0,59,0.00,,,0.00,meteohub,2013-02-22 16:59:00,
2013-02-22 12:04:00,40.5,26.8,30.39,NNE,26,12.0,15.0,58,0.00,,,0.00,meteohub,2013-02-22 17:04:00,
2013-02-22 12:09:00,40.8,27.1,30.39,NNE,24,6.0,15.0,58,0.00,,,0.00,meteohub,2013-02-22 17:09:00,
2013-02-22 12:14:00,40.6,26.6,30.39,NNE,24,3.0,15.0,57,0.00,,,0.00,meteohub,2013-02-22 17:14:00,
2013-02-22 12:19:00,40.8,27.7,30.39,NNE,24,3.0,15.0,59,0.00,,,0.00,meteohub,2013-02-22 17:19:00,
2013-02-22 12:24:00,40.8,26.4,30.39,NNE,24,2.0,15.0,56,0.00,,,0.00,meteohub,2013-02-22 17:24:00,
2013-02-22 12:29:00,40.6,26.6,30.40,NNE,24,3.0,15.0,57,0.00,,,0.00,meteohub,2013-02-22 17:29:00,
2013-02-22 12:34:00,39.6,26.4,30.39,NNE,26,8.0,15.0,59,0.00,,,0.00,meteohub,2013-02-22 17:34:00,
2013-02-22 12:39:00,38.5,27.0,30.39,NNE,28,6.0,15.0,63,0.00,,,0.00,meteohub,2013-02-22 17:39:00,
2013-02-22 12:44:00,38.1,27.9,30.38,NNE,24,4.0,9.0,66,0.00,,,0.00,meteohub,2013-02-22 17:44:00,
2013-02-22 12:49:00,38.7,27.1,30.38,NE,46,10.0,10.0,63,0.00,,,0.00,meteohub,2013-02-22 17:49:00,
2013-02-22 12:54:00,37.6,27.7,30.38,NE,52,11.0,11.0,67,0.00,,,0.00,meteohub,2013-02-22 17:54:00,
2013-02-22 12:59:00,37.0,27.9,30.38,NE,53,10.0,10.0,69,0.00,,,0.00,meteohub,2013-02-22 17:59:00,
2013-02-22 13:04:00,36.9,28.0,30.38,NE,55,10.0,10.0,70,0.00,,,0.00,meteohub,2013-02-22 18:04:00,
2013-02-22 13:09:00,36.9,28.0,30.38,NE,55,11.0,11.0,70,0.00,,,0.00,meteohub,2013-02-22 18:09:00,
2013-02-22 13:14:00,37.0,28.2,30.38,NE,55,8.0,9.0,70,0.00,,,0.00,meteohub,2013-02-22 18:14:00,
2013-02-22 13:19:00,36.9,28.8,30.38,NE,55,10.0,10.0,72,0.00,,,0.00,meteohub,2013-02-22 18:19:00,
2013-02-22 13:24:00,36.9,28.9,30.38,NE,55,11.0,13.0,73,0.00,,,0.00,meteohub,2013-02-22 18:24:00,
2013-02-22 13:29:00,36.7,28.8,30.37,NE,55,11.0,13.0,73,0.00,,,0.00,meteohub,2013-02-22 18:29:00,
2013-02-22 13:34:00,36.7,28.6,30.37,NE,55,11.0,13.0,72,0.00,,,0.00,meteohub,2013-02-22 18:34:00,
2013-02-22 13:39:00,36.7,28.8,30.37,NE,56,12.0,13.0,73,0.00,,,0.00,meteohub,2013-02-22 18:39:00,
2013-02-22 13:44:00,36.7,28.8,30.36,NE,53,13.0,13.0,73,0.00,,,0.00,meteohub,2013-02-22 18:44:00,
2013-02-22 13:49:00,36.7,28.8,30.36,NE,53,13.0,13.0,73,0.00,,,0.00,meteohub,2013-02-22 18:49:00,
2013-02-22 13:54:00,36.7,28.8,30.36,NE,56,12.0,13.0,73,0.00,,,0.00,meteohub,2013-02-22 18:54:00,
2013-02-22 13:59:00,36.7,28.8,30.36,NE,49,12.0,15.0,73,0.00,,,0.00,meteohub,2013-02-22 18:59:00,
2013-02-22 14:04:00,36.7,28.8,30.36,NE,55,12.0,15.0,73,0.00,,,0.00,meteohub,2013-02-22 19:04:00,
2013-02-22 14:10:00,36.7,28.8,30.36,NE,54,11.0,15.0,73,0.00,,,0.00,meteohub,2013-02-22 19:10:00,
2013-02-22 14:15:00,36.9,29.7,30.35,NE,46,13.0,15.0,75,0.00,,,0.00,meteohub,2013-02-22 19:15:00,
2013-02-22 14:20:00,36.7,29.1,30.35,NE,56,12.0,15.0,74,0.00,,,0.00,meteohub,2013-02-22 19:20:00,
2013-02-22 14:25:00,36.7,29.1,30.36,NE,55,8.0,16.0,74,0.00,,,0.00,meteohub,2013-02-22 19:25:00,
2013-02-22 14:30:00,36.7,29.1,30.36,NE,49,12.0,16.0,74,0.00,,,0.00,meteohub,2013-02-22 19:30:00,
2013-02-22 14:35:00,36.9,28.9,30.36,NE,51,11.0,16.0,73,0.00,,,0.00,meteohub,2013-02-22 19:35:00,
2013-02-22 14:40:00,36.7,29.1,30.36,NE,53,11.0,16.0,74,0.00,,,0.00,meteohub,2013-02-22 19:40:00,
2013-02-22 14:45:00,36.9,29.3,30.36,NE,49,11.0,16.0,74,0.00,,,0.00,meteohub,2013-02-22 19:45:00,
2013-02-22 14:50:00,36.9,29.3,30.36,ENE,57,12.0,16.0,74,0.00,,,0.00,meteohub,2013-02-22 19:50:00,
2013-02-22 14:55:00,36.9,29.3,30.35,NE,46,12.0,16.0,74,0.00,,,0.00,meteohub,2013-02-22 19:55:00,
2013-02-22 15:00:00,37.0,29.5,30.35,NE,48,13.0,14.0,74,0.00,,,0.00,meteohub,2013-02-22 20:00:00,
2013-02-22 15:05:00,37.0,29.1,30.36,NE,53,10.0,14.0,73,0.00,,,0.00,meteohub,2013-02-22 20:05:00,
2013-02-22 15:10:00,37.0,29.8,30.36,NE,49,12.0,14.0,75,0.00,,,0.00,meteohub,2013-02-22 20:10:00,
2013-02-22 15:15:00,37.0,29.1,30.35,NE,36,11.0,14.0,73,0.00,,,0.00,meteohub,2013-02-22 20:15:00,
2013-02-22 15:20:00,37.2,30.0,30.35,NE,38,10.0,14.0,75,0.00,,,0.00,meteohub,2013-02-22 20:20:00,
2013-02-22 15:25:00,37.0,29.5,30.35,NE,47,11.0,15.0,74,0.00,,,0.00,meteohub,2013-02-22 20:25:00,
2013-02-22 15:30:00,37.0,29.5,30.36,NNE,31,6.0,15.0,74,0.00,,,0.00,meteohub,2013-02-22 20:30:00,
2013-02-22 15:35:00,37.0,29.1,30.35,NE,44,14.0,15.0,73,0.00,,,0.00,meteohub,2013-02-22 20:35:00,
2013-02-22 15:40:00,37.0,29.5,30.35,NE,47,11.0,15.0,74,0.00,,,0.00,meteohub,2013-02-22 20:40:00,
2013-02-22 15:45:00,36.9,29.3,30.36,NE,37,10.0,15.0,74,0.00,,,0.00,meteohub,2013-02-22 20:45:00,
2013-02-22 15:50:00,37.0,29.1,30.36,NE,38,5.0,15.0,73,0.00,,,0.00,meteohub,2013-02-22 20:50:00,
2013-02-22 15:55:00,37.0,29.5,30.36,NE,45,12.0,18.0,74,0.00,,,0.00,meteohub,2013-02-22 20:55:00,
2013-02-22 16:00:00,36.9,28.8,30.36,NE,44,12.0,18.0,72,0.00,,,0.00,meteohub,2013-02-22 21:00:00,
2013-02-22 16:05:00,36.9,29.3,30.36,NE,44,9.0,18.0,74,0.00,,,0.00,meteohub,2013-02-22 21:05:00,
2013-02-22 16:10:00,36.9,29.3,30.35,NE,40,16.0,18.0,74,0.00,,,0.00,meteohub,2013-02-22 21:10:00,
2013-02-22 16:15:00,36.9,29.3,30.36,NE,47,15.0,18.0,74,0.00,,,0.00,meteohub,2013-02-22 21:15:00,
2013-02-22 16:20:00,36.9,29.3,30.36,NNE,31,9.0,18.0,74,0.00,,,0.00,meteohub,2013-02-22 21:20:00,
2013-02-22 16:25:00,36.9,29.3,30.36,NE,44,10.0,18.0,74,0.00,,,0.00,meteohub,2013-02-22 21:25:00,
2013-02-22 16:30:00,36.9,29.3,30.36,NE,52,13.0,18.0,74,0.00,,,0.00,meteohub,2013-02-22 21:30:00,
2013-02-22 16:35:00,36.7,29.5,30.36,NE,43,8.0,18.0,75,0.00,,,0.00,meteohub,2013-02-22 21:35:00,
2013-02-22 16:40:00,36.7,29.5,30.36,NE,38,12.0,18.0,75,0.00,,,0.00,meteohub,2013-02-22 21:40:00,
2013-02-22 16:45:00,36.7,29.5,30.36,NE,35,12.0,15.0,75,0.00,,,0.00,meteohub,2013-02-22 21:45:00,
2013-02-22 16:50:00,36.7,29.8,30.36,NE,51,13.0,15.0,76,0.00,,,0.00,meteohub,2013-02-22 21:50:00,
2013-02-22 16:55:00,36.7,29.8,30.36,NE,45,12.0,15.0,76,0.00,,,0.00,meteohub,2013-02-22 21:55:00,
2013-02-22 17:00:00,36.7,30.2,30.36,NE,43,8.0,15.0,77,0.00,,,0.00,meteohub,2013-02-22 22:00:00,
2013-02-22 17:05:00,36.5,30.0,30.36,NE,44,9.0,15.0,77,0.00,,,0.00,meteohub,2013-02-22 22:05:00,
2013-02-22 17:10:00,36.7,30.2,30.36,NE,44,5.0,15.0,77,0.00,,,0.00,meteohub,2013-02-22 22:10:00,
2013-02-22 17:15:00,36.7,30.2,30.36,NE,42,10.0,15.0,77,0.00,,,0.00,meteohub,2013-02-22 22:15:00,
2013-02-22 17:20:00,36.7,30.2,30.36,NE,39,9.0,13.0,77,0.00,,,0.00,meteohub,2013-02-22 22:20:00,
2013-02-22 17:25:00,36.7,30.2,30.36,NE,41,8.0,13.0,77,0.00,,,0.00,meteohub,2013-02-22 22:25:00,
2013-02-22 17:30:00,36.7,30.2,30.37,NE,42,8.0,13.0,77,0.00,,,0.00,meteohub,2013-02-22 22:30:00,
2013-02-22 17:35:00,36.7,30.6,30.37,NE,42,9.0,13.0,78,0.00,,,0.00,meteohub,2013-02-22 22:35:00,
2013-02-22 17:40:00,36.7,30.6,30.37,NE,42,8.0,13.0,78,0.00,,,0.00,meteohub,2013-02-22 22:40:00,
2013-02-22 17:46:00,36.7,30.6,30.37,NE,42,7.0,11.0,78,0.00,,,0.00,meteohub,2013-02-22 22:46:00,
2013-02-22 17:51:00,36.7,30.2,30.37,NE,42,8.0,11.0,77,0.00,,,0.00,meteohub,2013-02-22 22:51:00,
2013-02-22 17:56:00,36.9,30.4,30.37,NE,43,9.0,11.0,77,0.00,,,0.00,meteohub,2013-02-22 22:56:00,
2013-02-22 18:01:00,36.9,30.4,30.38,NE,43,7.0,11.0,77,0.00,,,0.00,meteohub,2013-02-22 23:01:00,
2013-02-22 18:06:00,36.9,30.0,30.37,NE,44,8.0,11.0,76,0.00,,,0.00,meteohub,2013-02-22 23:06:00,
2013-02-22 18:11:00,36.9,29.7,30.37,NE,45,6.0,11.0,75,0.00,,,0.00,meteohub,2013-02-22 23:11:00,
2013-02-22 18:16:00,36.9,30.0,30.37,NE,51,7.0,11.0,76,0.00,,,0.00,meteohub,2013-02-22 23:16:00,
2013-02-22 18:21:00,36.9,30.4,30.38,NE,52,8.0,11.0,77,0.00,,,0.00,meteohub,2013-02-22 23:21:00,
2013-02-22 18:26:00,36.9,30.4,30.38,NE,53,10.0,11.0,77,0.00,,,0.00,meteohub,2013-02-22 23:26:00,
2013-02-22 18:31:00,37.0,30.2,30.38,NE,53,8.0,11.0,76,0.00,,,0.00,meteohub,2013-02-22 23:31:00,
2013-02-22 18:36:00,37.0,30.6,30.38,NE,53,6.0,11.0,77,0.00,,,0.00,meteohub,2013-02-22 23:36:00,
2013-02-22 18:41:00,37.0,30.6,30.38,NE,53,7.0,11.0,77,0.00,,,0.00,meteohub,2013-02-22 23:41:00,
2013-02-22 18:46:00,37.0,30.7,30.38,NE,53,7.0,11.0,78,0.00,,,0.00,meteohub,2013-02-22 23:46:00,
2013-02-22 18:51:00,36.9,30.6,30.38,NE,53,6.0,11.0,78,0.00,,,0.00,meteohub,2013-02-22 23:51:00,
2013-02-22 18:56:00,37.0,30.6,30.38,NE,53,8.0,8.0,77,0.00,,,0.00,meteohub,2013-02-22 23:56:00,
2013-02-22 19:01:00,37.0,30.6,30.37,ENE,57,11.0,11.0,77,0.00,,,0.00,meteohub,2013-02-23 00:01:00,
2013-02-22 19:06:00,37.0,30.6,30.37,ENE,60,8.0,8.0,77,0.00,,,0.00,meteohub,2013-02-23 00:06:00,
2013-02-22 19:11:00,37.2,30.7,30.37,ENE,60,10.0,10.0,77,0.00,,,0.00,meteohub,2013-02-23 00:11:00,
2013-02-22 19:16:00,37.2,30.9,30.37,ENE,60,8.0,8.0,78,0.00,,,0.00,meteohub,2013-02-23 00:16:00,
2013-02-22 19:21:00,37.0,30.7,30.37,ENE,60,7.0,11.0,78,0.00,,,0.00,meteohub,2013-02-23 00:21:00,
2013-02-22 19:26:00,37.0,30.7,30.37,ENE,60,6.0,11.0,78,0.00,,,0.00,meteohub,2013-02-23 00:26:00,
2013-02-22 19:31:00,37.0,30.6,30.36,ENE,60,8.0,11.0,77,0.00,,,0.00,meteohub,2013-02-23 00:31:00,
2013-02-22 19:36:00,37.2,30.7,30.36,ENE,60,10.0,11.0,77,0.00,,,0.00,meteohub,2013-02-23 00:36:00,
2013-02-22 19:41:00,37.2,30.7,30.36,ENE,60,7.0,11.0,77,0.00,,,0.00,meteohub,2013-02-23 00:41:00,
2013-02-22 19:46:00,37.2,30.7,30.36,ENE,60,6.0,11.0,77,0.00,,,0.00,meteohub,2013-02-23 00:46:00,
2013-02-22 19:51:00,37.2,30.4,30.36,ENE,60,7.0,11.0,76,0.00,,,0.00,meteohub,2013-02-23 00:51:00,
2013-02-22 19:56:00,37.2,30.7,30.36,ENE,60,10.0,11.0,77,0.00,,,0.00,meteohub,2013-02-23 00:56:00,
2013-02-22 20:01:00,37.2,30.7,30.36,ENE,60,6.0,11.0,77,0.00,,,0.00,meteohub,2013-02-23 01:01:00,
2013-02-22 20:07:00,37.0,30.7,30.36,ENE,60,6.0,11.0,78,0.00,,,0.00,meteohub,2013-02-23 01:07:00,
2013-02-22 20:12:00,37.0,30.7,30.36,ENE,60,6.0,11.0,78,0.00,,,0.00,meteohub,2013-02-23 01:12:00,
2013-02-22 20:17:00,37.2,31.3,30.36,ENE,60,11.0,11.0,79,0.00,,,0.00,meteohub,2013-02-23 01:17:00,
2013-02-22 20:22:00,37.2,31.3,30.36,ENE,60,10.0,12.0,79,0.00,,,0.00,meteohub,2013-02-23 01:22:00,
2013-02-22 20:27:00,37.2,31.6,30.36,ENE,60,6.0,12.0,80,0.00,,,0.00,meteohub,2013-02-23 01:27:00,
2013-02-22 20:32:00,37.2,31.3,30.37,ENE,60,7.0,12.0,79,0.00,,,0.00,meteohub,2013-02-23 01:32:00,
2013-02-22 20:37:00,37.2,31.3,30.36,ENE,60,5.0,12.0,79,0.00,,,0.00,meteohub,2013-02-23 01:37:00,
2013-02-22 20:42:00,37.2,31.3,30.36,ENE,60,6.0,8.0,79,0.00,,,0.00,meteohub,2013-02-23 01:42:00,
2013-02-22 20:47:00,37.2,30.9,30.36,ENE,60,6.0,8.0,78,0.00,,,0.00,meteohub,2013-02-23 01:47:00,
2013-02-22 20:52:00,37.6,31.3,30.36,ENE,60,7.0,8.0,78,0.00,,,0.00,meteohub,2013-02-23 01:52:00,
2013-02-22 20:57:00,37.6,31.3,30.36,ENE,60,10.0,10.0,78,0.00,,,0.00,meteohub,2013-02-23 01:57:00,
2013-02-22 21:02:00,37.6,30.4,30.36,ENE,61,7.0,10.0,75,0.00,,,0.00,meteohub,2013-02-23 02:02:00,
2013-02-22 21:07:00,37.8,30.6,30.37,ENE,61,10.0,10.0,75,0.00,,,0.00,meteohub,2013-02-23 02:07:00,
2013-02-22 21:12:00,37.8,30.6,30.37,ENE,67,10.0,10.0,75,0.00,,,0.00,meteohub,2013-02-23 02:12:00,
2013-02-22 21:17:00,37.8,30.9,30.37,ENE,67,8.0,10.0,76,0.00,,,0.00,meteohub,2013-02-23 02:17:00,
2013-02-22 21:22:00,37.9,31.1,30.37,ENE,69,8.0,12.0,76,0.00,,,0.00,meteohub,2013-02-23 02:22:00,
2013-02-22 21:27:00,37.9,31.1,30.37,ENE,71,6.0,12.0,76,0.00,,,0.00,meteohub,2013-02-23 02:27:00,
2013-02-22 21:32:00,37.8,31.3,30.36,ENE,71,10.0,12.0,77,0.00,,,0.00,meteohub,2013-02-23 02:32:00,
2013-02-22 21:37:00,37.9,31.5,30.36,ENE,71,10.0,12.0,77,0.00,,,0.00,meteohub,2013-02-23 02:37:00,
2013-02-22 21:42:00,37.8,31.3,30.36,ENE,71,11.0,12.0,77,0.00,,,0.00,meteohub,2013-02-23 02:42:00,
2013-02-22 21:47:00,37.8,31.3,30.35,ENE,71,12.0,12.0,77,0.00,,,0.00,meteohub,2013-02-23 02:47:00,
2013-02-22 21:52:00,37.8,31.5,30.35,ENE,71,10.0,12.0,78,0.00,,,0.00,meteohub,2013-02-23 02:52:00,
2013-02-22 21:57:00,37.9,31.5,30.36,ENE,71,8.0,12.0,77,0.00,,,0.00,meteohub,2013-02-23 02:57:00,
2013-02-22 22:02:00,37.9,31.5,30.36,ENE,71,7.0,13.0,77,0.00,,,0.00,meteohub,2013-02-23 03:02:00,
2013-02-22 22:07:00,37.9,31.6,30.35,ENE,71,10.0,13.0,78,0.00,,,0.00,meteohub,2013-02-23 03:07:00,
2013-02-22 22:12:00,37.8,31.3,30.35,ENE,71,12.0,13.0,77,0.00,,,0.00,meteohub,2013-02-23 03:12:00,
2013-02-22 22:17:00,37.9,31.1,30.35,ENE,73,11.0,13.0,76,0.00,,,0.00,meteohub,2013-02-23 03:17:00,
2013-02-22 22:22:00,38.1,31.3,30.35,ENE,73,13.0,13.0,76,0.00,,,0.00,meteohub,2013-02-23 03:22:00,
2013-02-22 22:27:00,38.1,31.6,30.35,ENE,64,12.0,13.0,77,0.00,,,0.00,meteohub,2013-02-23 03:27:00,
2013-02-22 22:32:00,37.9,31.6,30.35,ENE,61,12.0,13.0,78,0.00,,,0.00,meteohub,2013-02-23 03:32:00,
2013-02-22 22:37:00,37.9,31.6,30.34,ENE,58,12.0,13.0,78,0.00,,,0.00,meteohub,2013-02-23 03:37:00,
2013-02-22 22:42:00,37.8,31.8,30.34,NE,53,12.0,15.0,79,0.00,,,0.00,meteohub,2013-02-23 03:42:00,
2013-02-22 22:47:00,37.8,31.8,30.34,NE,55,13.0,15.0,79,0.00,,,0.00,meteohub,2013-02-23 03:47:00,
2013-02-22 22:52:00,37.8,32.2,30.34,NE,51,12.0,15.0,80,0.00,,,0.00,meteohub,2013-02-23 03:52:00,
2013-02-22 22:57:00,37.8,32.2,30.34,NE,49,13.0,15.0,80,0.00,,,0.00,meteohub,2013-02-23 03:57:00,
2013-02-22 23:02:00,37.8,32.2,30.33,NE,49,13.0,15.0,80,0.00,,,0.00,meteohub,2013-02-23 04:02:00,
2013-02-22 23:07:00,37.8,32.2,30.33,NE,51,12.0,15.0,80,0.00,,,0.00,meteohub,2013-02-23 04:07:00,
2013-02-22 23:12:00,37.6,32.4,30.33,NE,49,13.0,15.0,81,0.00,,,0.00,meteohub,2013-02-23 04:12:00,
2013-02-22 23:17:00,37.6,32.4,30.33,NE,47,12.0,15.0,81,0.00,,,0.00,meteohub,2013-02-23 04:17:00,
2013-02-22 23:22:00,37.6,32.4,30.33,NE,52,13.0,15.0,81,0.00,,,0.00,meteohub,2013-02-23 04:22:00,
2013-02-22 23:27:00,37.8,32.5,30.32,NE,55,12.0,15.0,81,0.00,,,0.00,meteohub,2013-02-23 04:27:00,
2013-02-22 23:32:00,37.8,32.5,30.32,NE,53,13.0,15.0,81,0.00,,,0.00,meteohub,2013-02-23 04:32:00,
2013-02-22 23:37:00,37.8,32.5,30.32,ENE,57,14.0,15.0,81,0.00,,,0.00,meteohub,2013-02-23 04:37:00,
2013-02-22 23:42:00,37.8,32.5,30.32,NE,49,15.0,17.0,81,0.00,,,0.00,meteohub,2013-02-23 04:42:00,
2013-02-22 23:48:00,37.8,32.5,30.32,NE,52,12.0,17.0,81,0.00,,,0.00,meteohub,2013-02-23 04:48:00,
2013-02-22 23:53:00,37.8,32.5,30.32,NE,51,13.0,17.0,81,0.00,,,0.00,meteohub,2013-02-23 04:53:00,
2013-02-22 23:58:00,37.8,32.5,30.32,NE,55,13.0,17.0,81,0.00,,,0.00,meteohub,2013-02-23 04:58:00,